This is the latest recevied weather packets stored in our database for station/object KAGO. If no packets are shown the sender has not sent any weather packets the latest 1 day(s).
| Time | Temp. | Humidity | Pressure | Rain* | Wind** | Luminosity | Snow |
|---|---|---|---|---|---|---|---|
| 1836274574 | 20.56° C | 94% | 1016.3 hPa | - | 0 m/s | - | - |
| 1836274425 | 20.56° C | 94% | 1016.3 hPa | - | 0 m/s | - | - |
| 1836273973 | 20.56° C | 94% | 1016.3 hPa | - | 0 m/s | - | - |
| 1778054002 | 23.89° C | 88% | 1006.8 hPa | - | 5.36 m/s, 190° | - | - |
| 1778053406 | 23.89° C | 88% | 1006.8 hPa | - | 5.36 m/s, 190° | - | - |
| 1778052804 | 23.89° C | 88% | 1007.1 hPa | - | 5.36 m/s, 190° | - | - |
| 1778052205 | 23.89° C | 88% | 1007.1 hPa | - | 5.36 m/s, 190° | - | - |
| 1778051606 | 23.89° C | 88% | 1007.5 hPa | - | 5.36 m/s, 200° | - | - |
| 1778051006 | 23.89° C | 88% | 1007.5 hPa | - | 5.36 m/s, 200° | - | - |
| 1778050401 | 23.89° C | 88% | 1007.1 hPa | - | 7.15 m/s, 190° | - | - |
| 1778049803 | 23.89° C | 88% | 1007.5 hPa | - | 4.02 m/s, 190° | - | - |
| 1778049210 | 23.89° C | 88% | 1007.5 hPa | - | 4.02 m/s, 190° | - | - |
| 1778048604 | 23.89° C | 88% | 1007.5 hPa | - | 4.02 m/s, 190° | - | - |
| 1778048003 | 23.89° C | 88% | 1007.5 hPa | - | 4.02 m/s, 190° | - | - |
| 1778047408 | 23.89° C | 88% | 1007.5 hPa | - | 4.02 m/s, 190° | - | - |
| 1778046805 | 23.89° C | 88% | 1007.5 hPa | - | 5.36 m/s, 190° | - | - |
| 1778046209 | 23.89° C | 88% | 1007.5 hPa | - | 5.36 m/s, 190° | - | - |
| 1778045602 | 23.89° C | 88% | 1007.8 hPa | - | 5.36 m/s, 200° | - | - |
| 1778045004 | 23.89° C | 88% | 1007.8 hPa | - | 5.36 m/s, 200° | - | - |
| 1778044404 | 23.89° C | 88% | 1007.1 hPa | - | 4.92 m/s, 190° | - | - |
| 1778043806 | 23.89° C | 88% | 1007.1 hPa | - | 4.92 m/s, 190° | - | - |
| 1778043203 | 23.89° C | 88% | 1007.5 hPa | - | 4.92 m/s, 200° | - | - |
| 1778042605 | 23.89° C | 88% | 1007.5 hPa | - | 4.92 m/s, 200° | - | - |
| 1778042005 | 23.89° C | 88% | 1006.8 hPa | - | 4.02 m/s, 190° | - | - |
| 1778041405 | 23.89° C | 88% | 1006.8 hPa | - | 4.02 m/s, 190° | - | - |
* Rain since midnight (hover to see other rain measurements)
** Current wind speed in m/s (hover to see current wind gust speed)